DELTA 1 R/B

基本信息
目录编号:
4354
目录名称:
DELTA 1 R/B
国际标识:
1970-021B
轨道中心:
EARTH
物体状态:
在轨
发射日期:
1970-03-20 UTC
国别:
美国 (US)
轨道信息
数据来源: 国际轨道数据
星历时间: 2026-07-13T20:29:03+0800
半长轴: 17979.256km
偏心率: 0.6300349
轨道倾角: 25.334°
近地点辐角: 154.162°
升交点赤经: 294.655°
平近点角: 259.787°
近地点: 273.56km
远地点: 22928.678km
周期: 399.869分钟
每日圈数: 3.601183
详细信息
发射场:
AFETR
轨道高度:
LEO
数据来源:
AOE Integration Group
参考系:
TEME
时间系统:
UTC
历元类型:
SGP4
2D轨道图
3D轨道图
轨道高度分析图
轨道倾角分析图
轨道综合分析图
查看轨道综合分析图